Location: Recife
(8.0585°S, 34.8848°W)
Time: 19:54:56
(UTC-03:00)

Explorer 11/Cluster Stage 4 - Pass Details

Date: 16 April 2026
Orbit: 463 x 1174 km, 28.8° (Epoch: 19 May)

Event Time Altitude Azimuth Distance (km) Brightness Sun altitude
Rises 17:27:03 0° 322° (NW) 3,780 10.9 -3.3°
Reaches altitude 10° 17:30:28 10° 335° (NNW) 2,713 9.9 -4.2°
Maximum altitude 17:35:39 25° 27° (NNE) 1,695 8.1 -5.4°
Drops below altitude 10° 17:40:07 10° 81° (E) 2,310 8.4 -6.5°
Enters shadow 17:40:54 - 86° (E) 2,526 8.5 -6.7°
